SCP
-0 -0 0 0 0 0 0 0 0 0 0 0 0 0 0 0 0 -0 -0 0 0 0 0 0 0 0 0 0 0 -0 0 0 0 0 0 0 0 0 0 0 0 0 0 0 0 0 0
-0 -0 -0 -0 -0 -0 -0 0 0 0 -0 -0 -0 -0 -0 -0 -0 -0 -0 -0 -0 -0 -0 0 0 0 0 0 0 0 0 0 0 0 0 0 0 0 0 0 0 0 0 0 0 0 0
0 0 -0 -0 -0 -0 -0 -0 0 -0 -0 -0 -0 -0 -0 -0 -0 -0 -0 -0 -0 -0 -0 -0 0 0 -0 0 0 0 0 0 0 0 0 0 0 0 0 0 0 0 0 0 0 0 0
0 -0 -0 -0 -0 -0 -0 -0 -0 -0 0 -0 -0 -0 -0 -0 -0 -0 -0 -0 0 0 0 0 0 0 0 0 0 0 0 0 0 0 0 0 0 0 0 0 0 0 0 0 0 0 0
-0 0 -0 -0 -0 -0 -0 -0 -0 -0 -0 -0 -0 -0 -0 -0 -0 -0 -0 -0 -0 0 0 0 0 0 -0 -0 0 0 0 0 0 0 0 0 0 0 0 0 0 0 0 0 0 0 0
-0 0 0 -0 -0 -0 -0 -0 0 -0 -0 -0 -0 -0 -0 -0 -0 -0 -0 -0 -0 0 0 0 0 0 -0 0 0 0 0 0 0 0 0 0 0 0 0 0 0 0 0 0 0 0 0
0 -0 -0 -0 -0 -0 -0 -0 0 0 0 -0 -0 -0 -0 -0 -0 -0 -0 0 0 -0 0 0 0 0 0 0 0 0 0 0 0 0 0 0 0 0 0 0 0 0 0 0 0 0 0
0 0 -0 0 0 0 0 0 0 0 -0 -0 -0 -0 -0 -0 -0 -0 0 0 0 0 0 0 0 0 0 0 0 0 0 0 0 0 0 0 0 0 0 0 0 0 0 0 0 0 0
0 0 0 -0 -0 -0 0 0 0 0 0 -0 -0 -0 -0 -0 -0 0 0 0 0 0 0 -0 -0 -0 0 0 0 0 0 0 0 0 0 0 0 0 0 0 0 0 0 0 0 0 0
-0 -0 0 0 -0 -0 -0 0 0 -0 -0 -0 -0 -0 -0 -0 0 0 0 0 0 0 0 0 0 -0 -0 0 0 0 0 0 0 0 0 0 0 0 0 0 0 0 0 0 0 0 0
0 -0 0 0 0 0 0 -0 -0 -0 -0 -0 -0 -0 -0 -0 0 0 0 0 0 0 0 -0 -0 0 -0 0 -0 0 0 0 0 0 0 0 0 0 0 0 0 0 0 0 0 0 0
0 0 -0 0 0 0 0 0 0 -0 -0 -0 -0 0 -0 0 0 0 0 0 0 0 0 0 -0 0 -0 0 -0 0 0 0 0 0 0 0 0 0 0 0 0 0 0 0 0 0 0
0 0 0 0 0 0 0 0 0 0 0 0 -0 0 0 0 0 0 0 0 0 0 0 0 -0 0 0 -0 -0 -0 -0 -0 0 0 0 0 0 0 0 0 0 0 0 0 0 0 0
0 0 0 0 0 0 0 0 0 0 0 0 0 0 0 0 0 0 0 0 0 0 0 0 -0 0 -0 -0 0 -0 -0 0 -0 0 0 0 0 0 0 0 0 0 0 0 0 0 0
0 0 0 0 0 0 0 0 0 0 0 0 0 0 0 0 0 0 0 0 0 0 0 0 -0 0 0 0 0 0 0 0 0 0 0 0 0 0 0 0 0 0 0 0 0 0 0
0 0 0 0 0 0 0 0 0 0 0 0 0 0 0 0 0 0 0 0 0 0 -0 0 -0 -0 -0 -0 0 -0 0 0 0 0 0 -0 -0 -0 0 0 0 0 0 0 0 0 0
0 0 0 0 0 0 0 0 0 0 0 0 0 0 0 0 0 0 0 0 0 -0 -0 0 -0 0 -0 -0 -0 0 0 0 0 0 0 0 -0 0 0 0 0 0 0 0 0 0 0
0 0 0 0 0 0 0 0 0 0 0 0 0 0 0 0 0 0 0 0 0 0 -0 0 0 0 -0 -0 0 -0 -0 0 0 -0 0 0 -0 -0 0 0 0 0 0 0 0 0 0
0 0 0 0 0 0 0 0 0 0 0 0 0 0 0 0 0 0 0 0 0 0 0 0 0 0 -0 -0 -0 -0 0 -0 -0 -0 0 0 0 -0 0 0 0 0 0 0 0 0 0
0 0 0 0 0 0 0 0 0 0 0 0 0 0 0 0 0 0 0 0 0 0 0 -0 0 0 0 -0 0 0 0 0 -0 -0 -0 0 0 0 0 0 0 0 0 0 0 0 0
0 0 0 0 0 0 0 0 0 0 0 0 0 0 0 0 0 0 0 0 0 0 0 -0 0 -0 -0 0 -0 0 0 0 -0 -0 0 0 0 -0 0 0 0 0 0 0 0 0 0
0 0 0 0 0 0 0 0 0 0 0 0 0 0 0 0 0 0 0 0 0 0 0 0 0 0 -0 0 0 -0 0 -0 0 0 0 0 -0 0 -0 -0 0 0 0 0 0 0 0
0 0 0 0 0 0 0 0 0 0 0 0 0 0 0 0 0 0 0 0 0 0 0 0 -0 0 0 0 0 0 0 -0 0 0 0 -0 -0 -0 -0 -0 0 0 0 0 0 0 0
0 0 0 0 0 0 0 0 0 0 0 0 0 0 0 0 0 0 0 0 0 0 0 0 0 0 0 0 0 0 0 -0 -0 -0 -0 0 -0 0 -0 -0 0 0 0 0 0 0 0
0 0 0 0 0 0 0 0 0 0 0 0 0 0 0 0 0 0 0 0 0 0 0 0 0 0 0 0 0 0 0 0 0 0 -0 -0 -0 0 0 0 -0 0 0 0 0 1 0
0 0 0 0 0 0 0 0 0 0 0 0 0 0 0 0 0 0 0 0 0 0 0 0 0 0 0 0 0 0 0 0 0 -0 -0 -0 0 0 0 -0 0 0 0 0 0 0 0
0 0 0 0 0 0 0 0 0 0 0 0 0 0 0 0 0 0 0 0 0 0 0 0 0 0 0 0 0 0 0 0 0 -0 -0 -0 0 0 -0 0 0 0 0 0 1 0 0
0 0 0 0 0 0 0 0 0 0 0 0 0 0 0 0 0 0 0 0 0 0 0 0 0 0 0 0 0 0 0 0 0 0 -0 -0 0 0 0 0 0 -0 0 0 0 0 0
0 0 0 0 0 0 0 0 0 0 0 0 0 0 0 0 0 0 0 -0 -0 -0 0 0 0 0 0 0 0 0 0 0 0 0 -0 -0 -0 -0 0 0 0 -0 0 0 0 0 0
Wind_Speed_500mb
35 38 39 37 35 33 32 33 33 34 35 35 37 38 39 40 41 43 43 42 41 39 37 37 39 43 42 24 53 24 24 10 4 21 70 65 53 29 14 13 30 36 21 44 56 60 60
40 41 42 40 38 36 33 33 33 34 34 35 36 38 40 41 42 44 46 48 48 47 43 39 39 38 34 22 32 22 54 64 26 22 43 57 23 41 16 14 23 9 30 49 51 56 60
39 42 44 43 40 37 37 37 39 40 40 40 39 42 44 45 45 45 46 47 47 49 48 45 37 30 33 62 55 45 45 41 39 34 25 49 49 24 20 8 40 39 25 32 39 33 22
37 40 42 42 41 39 38 39 39 40 40 41 44 46 51 53 54 55 54 48 39 36 38 41 36 23 30 57 38 50 40 57 46 40 30 28 28 34 49 19 19 8 9 38 39 36 31
38 39 40 41 41 41 42 43 45 48 51 53 54 57 60 60 61 57 50 41 26 30 33 32 30 18 33 20 26 14 24 47 46 36 29 30 19 22 11 8 3 13 33 36 33 23 15
38 40 41 42 42 43 44 46 49 51 52 55 56 58 63 62 58 52 34 36 37 20 26 29 9 14 23 34 23 45 17 7 21 30 25 20 17 11 9 12 33 24 36 40 36 12 31
38 41 42 45 47 47 48 47 48 51 53 54 54 56 55 46 33 23 26 41 55 3 48 34 53 60 68 92 75 62 16 19 28 22 14 11 8 36 47 36 24 19 36 17 5 25 31
37 40 43 47 49 52 51 50 50 51 52 50 47 49 43 31 20 21 33 30 45 45 34 48 53 68 81 96 77 96 42 16 7 9 12 10 39 29 20 14 27 29 28 32 17 17 22
39 41 43 47 50 53 55 52 51 51 50 47 43 42 36 29 18 25 23 40 51 31 8 24 56 39 60 27 61 76 63 37 12 9 11 21 9 18 33 25 30 32 40 31 24 27 46
41 43 44 46 50 54 56 54 54 55 52 49 43 39 28 32 16 33 29 47 35 18 3 11 22 17 57 11 11 52 55 46 10 20 15 19 18 28 23 44 26 39 17 31 32 21 31
43 44 45 47 49 52 53 56 60 60 58 54 45 38 22 18 31 34 43 55 18 6 8 29 22 22 25 24 20 16 33 58 40 27 15 21 13 5 25 31 27 41 23 30 26 22 32
46 46 48 50 51 51 51 57 62 63 61 58 50 35 26 18 24 34 41 43 13 9 6 12 25 35 33 41 16 22 21 12 7 23 34 28 28 22 18 23 17 10 17 20 19 8 19
51 50 50 51 52 52 55 60 66 68 63 61 53 37 26 21 23 33 37 26 8 8 9 21 26 31 22 29 22 27 14 14 9 8 4 5 19 30 27 23 18 10 3 5 5 11 33
52 53 53 54 55 53 55 60 67 71 67 63 55 41 16 20 17 25 31 10 11 19 21 38 27 18 17 28 20 29 24 14 12 5 2 3 7 12 3 5 5 12 18 10 14 8 14
52 54 55 56 58 58 58 60 64 72 69 67 60 20 10 13 16 14 11 9 4 9 24 31 39 5 7 14 13 18 11 6 8 6 6 3 7 9 17 13 12 11 19 10 10 29 1
53 54 55 57 60 63 64 63 61 70 71 62 39 17 12 10 9 16 8 5 6 19 36 31 17 13 16 12 14 14 6 10 17 16 3 2 6 13 10 8 10 18 7 9 8 12 18
53 54 55 58 61 64 66 66 60 68 67 60 25 12 12 9 15 7 4 8 21 31 37 11 20 10 12 7 8 10 18 16 13 14 15 7 7 8 9 7 9 3 8 8 7 8 19
52 56 55 57 60 65 66 66 59 67 66 54 24 6 14 16 9 5 5 18 35 29 26 11 11 6 5 8 10 9 4 8 23 20 11 8 3 8 20 32 34 13 9 11 8 19 9
51 55 57 55 57 63 65 64 58 62 61 54 28 11 10 27 6 7 11 22 16 25 16 8 10 4 3 9 8 11 12 5 8 6 2 7 5 8 18 6 10 8 6 3 10 12 36
51 54 56 57 56 58 61 63 60 55 53 34 14 8 12 8 28 5 13 14 15 31 18 25 12 7 9 9 6 12 22 6 5 10 26 10 8 11 12 18 13 20 17 12 3 5 21
49 52 55 55 57 57 57 60 63 58 47 25 14 4 8 7 11 16 17 10 20 13 11 16 9 13 15 10 24 10 13 26 18 19 6 10 10 18 29 31 32 34 37 23 17 12 5
50 53 54 54 54 55 55 56 60 62 46 14 17 12 13 21 24 14 10 5 19 25 8 13 10 28 20 14 25 38 28 15 18 11 11 5 6 5 28 38 39 41 37 27 28 22 20
50 53 55 53 54 54 53 51 54 57 50 15 25 10 16 13 8 6 5 19 15 33 17 25 31 28 24 29 33 53 57 47 27 16 15 13 9 5 17 18 8 14 24 27 14 10 7
49 54 55 52 56 56 51 48 48 47 42 32 30 18 12 9 11 13 28 29 26 35 23 37 38 18 21 63 78 45 44 44 38 30 32 14 11 7 13 15 8 4 10 4 8 15 5
52 53 53 52 58 55 49 43 43 43 42 34 26 10 11 13 25 30 15 19 37 34 14 27 36 47 56 38 9 11 6 8 6 12 26 31 12 6 7 8 5 9 10 12 11 4 25
57 54 55 56 57 56 43 39 38 39 40 39 30 10 19 20 9 18 29 27 13 10 13 15 41 46 31 5 5 7 6 10 8 16 18 19 15 8 5 9 6 5 22 41 25 9 33
61 58 59 59 58 47 39 38 38 38 37 38 35 8 18 23 35 24 10 12 16 7 6 16 32 19 31 9 6 5 6 11 8 12 10 4 6 18 19 8 3 24 36 51 13 10 49
56 59 68 64 50 43 42 41 41 39 37 36 43 14 21 24 65 66 49 26 23 19 3 18 17 10 8 11 6 5 5 5 7 4 11 4 7 4 5 4 2 47 43 17 13 28 52
58 64 67 59 45 45 47 47 46 40 37 30 43 36 30 35 43 61 72 73 75 47 35 7 7 5 6 5 4 6 5 5 7 7 10 3 5 6 6 6 2 5 16 24 27 30 32
Wind_Direction_500mb
37 34 29 23 20 18 17 17 15 14 10 7 3 359 355 350 346 342 336 329 323 316 310 306 307 307 302 267 249 233 235 277 304 304 212 209 209 209 211 225 236 244 240 232 243 258 258
38 31 25 22 21 21 21 20 17 13 8 4 2 359 355 350 345 339 333 327 323 315 307 299 303 302 289 267 293 285 256 258 240 248 217 209 217 218 266 236 225 286 244 254 254 252 254
34 30 29 29 30 28 22 18 12 6 2 1 1 359 354 349 343 337 333 331 322 315 307 297 293 292 265 262 295 284 267 246 217 227 218 221 209 216 225 274 262 258 271 276 253 252 257
33 30 29 28 26 23 17 11 5 1 359 357 358 357 353 349 343 339 339 340 337 330 301 295 290 282 265 304 295 260 246 242 218 219 231 211 201 243 237 268 302 259 246 244 249 248 255
28 25 22 20 20 17 12 8 4 359 356 356 355 354 350 349 346 342 343 346 340 332 306 300 294 293 273 304 285 306 287 238 223 227 228 228 237 231 188 147 280 231 243 240 246 228 233
20 17 14 13 13 11 8 6 2 358 355 354 353 350 348 346 338 330 339 357 10 15 12 341 320 303 272 267 301 324 297 221 213 240 246 246 232 200 164 174 214 220 226 237 247 220 231
13 10 8 7 6 5 4 2 360 358 355 353 350 346 344 341 333 331 347 3 4 312 315 286 283 271 274 281 284 287 310 312 237 227 177 194 189 220 211 216 236 259 245 268 232 217 228
6 6 4 1 359 357 358 356 356 355 352 350 345 343 349 351 355 349 342 359 347 326 310 321 303 284 279 270 275 278 274 293 280 200 168 197 229 234 246 220 231 249 264 266 290 289 236
359 359 360 357 354 352 351 352 352 350 347 345 343 344 344 360 14 355 353 343 329 329 305 309 335 331 336 275 245 262 265 270 230 250 226 217 219 230 241 239 245 231 236 254 261 294 288
356 354 355 354 352 350 349 349 348 347 344 341 341 341 343 355 4 351 342 340 338 345 47 287 337 347 346 264 276 252 261 245 232 217 246 255 229 254 249 230 230 246 241 238 254 250 258
1 359 356 355 354 352 352 351 349 346 344 340 337 338 343 333 349 348 342 340 331 313 45 340 300 323 305 308 280 276 313 213 226 217 180 231 283 172 236 243 225 252 259 232 237 235 251
5 4 3 359 357 355 354 353 351 347 344 339 336 336 317 315 335 352 345 337 324 45 309 315 342 347 353 354 342 323 15 22 231 241 229 226 231 248 248 265 256 325 245 244 253 234 251
7 5 4 2 360 357 354 354 353 349 344 337 338 330 300 305 329 353 349 337 37 85 292 349 354 350 5 352 349 8 90 194 142 293 72 268 235 237 242 257 270 209 47 245 246 197 236
7 6 5 3 360 356 352 350 352 351 348 338 338 327 300 308 327 338 342 36 64 16 330 334 338 343 347 359 352 349 3 16 137 197 149 256 284 174 33 98 273 215 177 197 195 204 230
6 5 5 3 1 358 353 348 349 350 352 341 341 349 325 304 352 9 359 32 248 348 320 319 325 324 281 4 327 357 334 352 17 22 143 192 252 340 319 308 138 308 222 179 287 273 271
2 4 4 3 0 358 356 353 350 351 356 349 355 5 352 340 342 353 67 266 281 321 320 322 321 328 348 335 359 345 305 48 349 350 350 216 292 254 287 301 241 208 253 177 205 200 240
359 359 359 360 359 358 355 354 353 354 1 1 6 13 5 320 320 20 122 253 310 321 322 313 334 350 345 335 286 329 349 334 357 341 330 309 163 298 347 241 218 273 216 191 161 197 221
0 357 356 358 0 1 0 358 358 357 359 9 2 24 6 349 352 23 333 315 310 318 328 345 313 4 336 332 346 347 263 335 348 331 331 309 156 271 260 267 256 258 255 172 219 238 258
353 354 356 355 355 357 1 2 2 1 357 355 348 324 32 349 27 322 293 316 286 332 331 1 298 32 312 344 344 289 357 186 231 323 317 333 326 324 328 315 44 240 103 4 284 206 238
353 351 352 355 354 354 356 0 3 2 355 356 351 358 344 27 2 337 321 332 319 330 308 350 293 16 353 308 238 277 301 279 320 242 278 249 226 203 224 253 304 290 275 306 84 276 246
348 348 348 347 350 353 352 353 358 3 1 6 10 340 23 305 330 318 315 288 310 326 298 321 306 351 325 294 307 252 312 306 294 286 158 157 232 226 255 265 266 262 265 256 235 234 238
341 342 342 343 344 348 350 350 353 359 6 20 357 353 326 292 290 329 322 329 306 327 303 296 306 307 301 269 262 281 279 265 256 253 175 133 267 303 278 272 257 252 252 236 232 235 248
334 339 339 338 339 341 344 345 347 356 2 11 353 316 310 285 288 347 287 318 315 317 290 282 299 298 291 277 283 286 278 264 245 197 190 180 198 261 273 341 110 229 239 232 231 195 208
328 332 334 335 334 334 335 340 344 350 355 349 349 325 305 289 309 302 303 307 319 312 303 306 312 293 291 307 306 292 268 258 245 231 224 224 173 198 278 280 219 187 59 19 302 236 5
327 325 327 328 331 330 329 332 337 341 342 339 342 294 285 291 305 293 281 317 309 298 282 302 310 314 313 301 309 327 317 352 27 223 222 212 204 259 260 299 258 195 15 343 335 176 21
324 325 326 322 327 327 324 324 331 335 334 333 355 267 265 299 255 272 312 290 303 311 317 293 334 339 354 323 357 325 335 335 345 338 345 182 201 183 307 274 294 145 319 301 282 215 355
322 325 321 321 321 324 321 322 323 326 329 325 336 272 272 271 277 272 261 297 284 274 275 291 335 333 1 3 355 344 313 358 356 343 346 333 219 232 243 261 277 338 310 282 176 333 316
321 320 320 323 317 316 314 313 316 319 321 314 317 333 255 261 278 279 273 256 262 268 248 310 337 6 308 24 347 322 293 325 316 307 324 307 297 298 294 266 331 357 358 54 345 334 331
318 319 320 323 315 310 310 309 308 309 312 306 299 315 282 271 261 279 288 282 273 268 263 236 261 251 299 346 352 302 291 300 309 344 313 305 350 323 352 331 113 68 19 12 351 322 313
Wind_Speed_850mb
35 38 39 37 35 33 32 33 33 34 35 35 37 38 39 40 41 43 43 42 41 39 37 37 39 43 42 24 53 24 24 10 4 21 70 65 53 29 14 13 30 36 21 44 56 60 60
40 41 42 40 38 36 33 33 33 34 34 35 36 38 40 41 42 44 46 48 48 47 43 39 39 38 34 22 32 22 54 64 26 22 43 57 23 41 16 14 23 9 30 49 51 56 60
39 42 44 43 40 37 37 37 39 40 40 40 39 42 44 45 45 45 46 47 47 49 48 45 37 30 33 62 55 45 45 41 39 34 25 49 49 24 20 8 40 39 25 32 39 33 22
37 40 42 42 41 39 38 39 39 40 40 41 44 46 51 53 54 55 54 48 39 36 38 41 36 23 30 57 38 50 40 57 46 40 30 28 28 34 49 19 19 8 9 38 39 36 31
38 39 40 41 41 41 42 43 45 48 51 53 54 57 60 60 61 57 50 41 26 30 33 32 30 18 33 20 26 14 24 47 46 36 29 30 19 22 11 8 3 13 33 36 33 23 15
38 40 41 42 42 43 44 46 49 51 52 55 56 58 63 62 58 52 34 36 37 20 26 29 9 14 23 34 23 45 17 7 21 30 25 20 17 11 9 12 33 24 36 40 36 12 31
38 41 42 45 47 47 48 47 48 51 53 54 54 56 55 46 33 23 26 41 55 3 48 34 53 60 68 92 75 62 16 19 28 22 14 11 8 36 47 36 24 19 36 17 5 25 31
37 40 43 47 49 52 51 50 50 51 52 50 47 49 43 31 20 21 33 30 45 45 34 48 53 68 81 96 77 96 42 16 7 9 12 10 39 29 20 14 27 29 28 32 17 17 22
39 41 43 47 50 53 55 52 51 51 50 47 43 42 36 29 18 25 23 40 51 31 8 24 56 39 60 27 61 76 63 37 12 9 11 21 9 18 33 25 30 32 40 31 24 27 46
41 43 44 46 50 54 56 54 54 55 52 49 43 39 28 32 16 33 29 47 35 18 3 11 22 17 57 11 11 52 55 46 10 20 15 19 18 28 23 44 26 39 17 31 32 21 31
43 44 45 47 49 52 53 56 60 60 58 54 45 38 22 18 31 34 43 55 18 6 8 29 22 22 25 24 20 16 33 58 40 27 15 21 13 5 25 31 27 41 23 30 26 22 32
46 46 48 50 51 51 51 57 62 63 61 58 50 35 26 18 24 34 41 43 13 9 6 12 25 35 33 41 16 22 21 12 7 23 34 28 28 22 18 23 17 10 17 20 19 8 19
51 50 50 51 52 52 55 60 66 68 63 61 53 37 26 21 23 33 37 26 8 8 9 21 26 31 22 29 22 27 14 14 9 8 4 5 19 30 27 23 18 10 3 5 5 11 33
52 53 53 54 55 53 55 60 67 71 67 63 55 41 16 20 17 25 31 10 11 19 21 38 27 18 17 28 20 29 24 14 12 5 2 3 7 12 3 5 5 12 18 10 14 8 14
52 54 55 56 58 58 58 60 64 72 69 67 60 20 10 13 16 14 11 9 4 9 24 31 39 5 7 14 13 18 11 6 8 6 6 3 7 9 17 13 12 11 19 10 10 29 1
53 54 55 57 60 63 64 63 61 70 71 62 39 17 12 10 9 16 8 5 6 19 36 31 17 13 16 12 14 14 6 10 17 16 3 2 6 13 10 8 10 18 7 9 8 12 18
53 54 55 58 61 64 66 66 60 68 67 60 25 12 12 9 15 7 4 8 21 31 37 11 20 10 12 7 8 10 18 16 13 14 15 7 7 8 9 7 9 3 8 8 7 8 19
52 56 55 57 60 65 66 66 59 67 66 54 24 6 14 16 9 5 5 18 35 29 26 11 11 6 5 8 10 9 4 8 23 20 11 8 3 8 20 32 34 13 9 11 8 19 9
51 55 57 55 57 63 65 64 58 62 61 54 28 11 10 27 6 7 11 22 16 25 16 8 10 4 3 9 8 11 12 5 8 6 2 7 5 8 18 6 10 8 6 3 10 12 36
51 54 56 57 56 58 61 63 60 55 53 34 14 8 12 8 28 5 13 14 15 31 18 25 12 7 9 9 6 12 22 6 5 10 26 10 8 11 12 18 13 20 17 12 3 5 21
49 52 55 55 57 57 57 60 63 58 47 25 14 4 8 7 11 16 17 10 20 13 11 16 9 13 15 10 24 10 13 26 18 19 6 10 10 18 29 31 32 34 37 23 17 12 5
50 53 54 54 54 55 55 56 60 62 46 14 17 12 13 21 24 14 10 5 19 25 8 13 10 28 20 14 25 38 28 15 18 11 11 5 6 5 28 38 39 41 37 27 28 22 20
50 53 55 53 54 54 53 51 54 57 50 15 25 10 16 13 8 6 5 19 15 33 17 25 31 28 24 29 33 53 57 47 27 16 15 13 9 5 17 18 8 14 24 27 14 10 7
49 54 55 52 56 56 51 48 48 47 42 32 30 18 12 9 11 13 28 29 26 35 23 37 38 18 21 63 78 45 44 44 38 30 32 14 11 7 13 15 8 4 10 4 8 15 5
52 53 53 52 58 55 49 43 43 43 42 34 26 10 11 13 25 30 15 19 37 34 14 27 36 47 56 38 9 11 6 8 6 12 26 31 12 6 7 8 5 9 10 12 11 4 25
57 54 55 56 57 56 43 39 38 39 40 39 30 10 19 20 9 18 29 27 13 10 13 15 41 46 31 5 5 7 6 10 8 16 18 19 15 8 5 9 6 5 22 41 25 9 33
61 58 59 59 58 47 39 38 38 38 37 38 35 8 18 23 35 24 10 12 16 7 6 16 32 19 31 9 6 5 6 11 8 12 10 4 6 18 19 8 3 24 36 51 13 10 49
56 59 68 64 50 43 42 41 41 39 37 36 43 14 21 24 65 66 49 26 23 19 3 18 17 10 8 11 6 5 5 5 7 4 11 4 7 4 5 4 2 47 43 17 13 28 52
58 64 67 59 45 45 47 47 46 40 37 30 43 36 30 35 43 61 72 73 75 47 35 7 7 5 6 5 4 6 5 5 7 7 10 3 5 6 6 6 2 5 16 24 27 30 32
Wind_Direction_850mb
37 34 29 23 20 18 17 17 15 14 10 7 3 359 355 350 346 342 336 329 323 316 310 306 307 307 302 267 249 233 235 277 304 304 212 209 209 209 211 225 236 244 240 232 243 258 258
38 31 25 22 21 21 21 20 17 13 8 4 2 359 355 350 345 339 333 327 323 315 307 299 303 302 289 267 293 285 256 258 240 248 217 209 217 218 266 236 225 286 244 254 254 252 254
34 30 29 29 30 28 22 18 12 6 2 1 1 359 354 349 343 337 333 331 322 315 307 297 293 292 265 262 295 284 267 246 217 227 218 221 209 216 225 274 262 258 271 276 253 252 257
33 30 29 28 26 23 17 11 5 1 359 357 358 357 353 349 343 339 339 340 337 330 301 295 290 282 265 304 295 260 246 242 218 219 231 211 201 243 237 268 302 259 246 244 249 248 255
28 25 22 20 20 17 12 8 4 359 356 356 355 354 350 349 346 342 343 346 340 332 306 300 294 293 273 304 285 306 287 238 223 227 228 228 237 231 188 147 280 231 243 240 246 228 233
20 17 14 13 13 11 8 6 2 358 355 354 353 350 348 346 338 330 339 357 10 15 12 341 320 303 272 267 301 324 297 221 213 240 246 246 232 200 164 174 214 220 226 237 247 220 231
13 10 8 7 6 5 4 2 360 358 355 353 350 346 344 341 333 331 347 3 4 312 315 286 283 271 274 281 284 287 310 312 237 227 177 194 189 220 211 216 236 259 245 268 232 217 228
6 6 4 1 359 357 358 356 356 355 352 350 345 343 349 351 355 349 342 359 347 326 310 321 303 284 279 270 275 278 274 293 280 200 168 197 229 234 246 220 231 249 264 266 290 289 236
359 359 360 357 354 352 351 352 352 350 347 345 343 344 344 360 14 355 353 343 329 329 305 309 335 331 336 275 245 262 265 270 230 250 226 217 219 230 241 239 245 231 236 254 261 294 288
356 354 355 354 352 350 349 349 348 347 344 341 341 341 343 355 4 351 342 340 338 345 47 287 337 347 346 264 276 252 261 245 232 217 246 255 229 254 249 230 230 246 241 238 254 250 258
1 359 356 355 354 352 352 351 349 346 344 340 337 338 343 333 349 348 342 340 331 313 45 340 300 323 305 308 280 276 313 213 226 217 180 231 283 172 236 243 225 252 259 232 237 235 251
5 4 3 359 357 355 354 353 351 347 344 339 336 336 317 315 335 352 345 337 324 45 309 315 342 347 353 354 342 323 15 22 231 241 229 226 231 248 248 265 256 325 245 244 253 234 251
7 5 4 2 360 357 354 354 353 349 344 337 338 330 300 305 329 353 349 337 37 85 292 349 354 350 5 352 349 8 90 194 142 293 72 268 235 237 242 257 270 209 47 245 246 197 236
7 6 5 3 360 356 352 350 352 351 348 338 338 327 300 308 327 338 342 36 64 16 330 334 338 343 347 359 352 349 3 16 137 197 149 256 284 174 33 98 273 215 177 197 195 204 230
6 5 5 3 1 358 353 348 349 350 352 341 341 349 325 304 352 9 359 32 248 348 320 319 325 324 281 4 327 357 334 352 17 22 143 192 252 340 319 308 138 308 222 179 287 273 271
2 4 4 3 0 358 356 353 350 351 356 349 355 5 352 340 342 353 67 266 281 321 320 322 321 328 348 335 359 345 305 48 349 350 350 216 292 254 287 301 241 208 253 177 205 200 240
359 359 359 360 359 358 355 354 353 354 1 1 6 13 5 320 320 20 122 253 310 321 322 313 334 350 345 335 286 329 349 334 357 341 330 309 163 298 347 241 218 273 216 191 161 197 221
0 357 356 358 0 1 0 358 358 357 359 9 2 24 6 349 352 23 333 315 310 318 328 345 313 4 336 332 346 347 263 335 348 331 331 309 156 271 260 267 256 258 255 172 219 238 258
353 354 356 355 355 357 1 2 2 1 357 355 348 324 32 349 27 322 293 316 286 332 331 1 298 32 312 344 344 289 357 186 231 323 317 333 326 324 328 315 44 240 103 4 284 206 238
353 351 352 355 354 354 356 0 3 2 355 356 351 358 344 27 2 337 321 332 319 330 308 350 293 16 353 308 238 277 301 279 320 242 278 249 226 203 224 253 304 290 275 306 84 276 246
348 348 348 347 350 353 352 353 358 3 1 6 10 340 23 305 330 318 315 288 310 326 298 321 306 351 325 294 307 252 312 306 294 286 158 157 232 226 255 265 266 262 265 256 235 234 238
341 342 342 343 344 348 350 350 353 359 6 20 357 353 326 292 290 329 322 329 306 327 303 296 306 307 301 269 262 281 279 265 256 253 175 133 267 303 278 272 257 252 252 236 232 235 248
334 339 339 338 339 341 344 345 347 356 2 11 353 316 310 285 288 347 287 318 315 317 290 282 299 298 291 277 283 286 278 264 245 197 190 180 198 261 273 341 110 229 239 232 231 195 208
328 332 334 335 334 334 335 340 344 350 355 349 349 325 305 289 309 302 303 307 319 312 303 306 312 293 291 307 306 292 268 258 245 231 224 224 173 198 278 280 219 187 59 19 302 236 5
327 325 327 328 331 330 329 332 337 341 342 339 342 294 285 291 305 293 281 317 309 298 282 302 310 314 313 301 309 327 317 352 27 223 222 212 204 259 260 299 258 195 15 343 335 176 21
324 325 326 322 327 327 324 324 331 335 334 333 355 267 265 299 255 272 312 290 303 311 317 293 334 339 354 323 357 325 335 335 345 338 345 182 201 183 307 274 294 145 319 301 282 215 355
322 325 321 321 321 324 321 322 323 326 329 325 336 272 272 271 277 272 261 297 284 274 275 291 335 333 1 3 355 344 313 358 356 343 346 333 219 232 243 261 277 338 310 282 176 333 316
321 320 320 323 317 316 314 313 316 319 321 314 317 333 255 261 278 279 273 256 262 268 248 310 337 6 308 24 347 322 293 325 316 307 324 307 297 298 294 266 331 357 358 54 345 334 331
318 319 320 323 315 310 310 309 308 309 312 306 299 315 282 271 261 279 288 282 273 268 263 236 261 251 299 346 352 302 291 300 309 344 313 305 350 323 352 331 113 68 19 12 351 322 313